Time,TemperatureF,DewpointF,PressureIn,WindDirection,WindDirectionDegrees,WindSpeedMPH,WindSpeedGustMPH,Humidity,HourlyPrecipIn,Conditions,Clouds,dailyrainin,SoftwareType,DateUTC
2013-06-27 00:01:00,76.0,73.0,29.81,NE,52,0.0,12.0,91,0.00,,,0.00,,2013-06-27 04:01:00,
2013-06-27 00:11:00,76.0,73.0,29.81,NE,52,0.0,12.0,91,0.00,,,0.00,,2013-06-27 04:11:00,
2013-06-27 00:32:00,76.0,74.0,29.81,NE,52,1.0,12.0,95,0.00,,,0.00,,2013-06-27 04:32:00,
2013-06-27 00:42:00,76.0,74.0,29.81,NE,52,1.0,12.0,95,0.00,,,0.00,,2013-06-27 04:42:00,
2013-06-27 00:53:00,76.0,74.0,29.81,NE,52,1.0,12.0,95,0.00,,,0.00,,2013-06-27 04:53:00,
2013-06-27 01:02:00,75.0,75.0,29.80,NE,52,0.0,2.0,100,0.00,,,0.00,,2013-06-27 05:02:00,
2013-06-27 01:12:00,75.0,75.0,29.80,NE,52,0.0,2.0,100,0.00,,,0.00,,2013-06-27 05:12:00,
2013-06-27 01:22:00,75.0,75.0,29.80,NE,52,0.0,2.0,100,0.00,,,0.00,,2013-06-27 05:22:00,
2013-06-27 01:32:00,75.0,75.0,29.78,ESE,123,0.0,2.0,100,0.00,,,0.00,,2013-06-27 05:32:00,
2013-06-27 01:42:00,75.0,75.0,29.78,ESE,123,0.0,2.0,100,0.00,,,0.00,,2013-06-27 05:42:00,
2013-06-27 01:53:00,75.0,75.0,29.77,ESE,123,0.0,2.0,100,0.00,,,0.00,,2013-06-27 05:53:00,
2013-06-27 02:02:00,75.0,75.0,29.76,East,96,1.0,2.0,100,0.00,,,0.00,,2013-06-27 06:02:00,
2013-06-27 02:12:00,75.0,75.0,29.76,NE,34,1.0,2.0,100,0.00,,,0.00,,2013-06-27 06:12:00,
2013-06-27 02:23:00,74.0,74.0,29.76,NNW,345,1.0,5.0,100,0.00,,,0.00,,2013-06-27 06:23:00,
2013-06-27 02:34:00,74.0,74.0,29.76,North,350,0.0,5.0,100,0.00,,,0.00,,2013-06-27 06:34:00,
2013-06-27 02:43:00,74.0,74.0,29.75,NW,321,1.0,5.0,100,0.00,,,0.00,,2013-06-27 06:43:00,
2013-06-27 02:53:00,74.0,74.0,29.75,NNW,343,0.0,5.0,100,0.00,,,0.00,,2013-06-27 06:53:00,
2013-06-27 03:02:00,73.0,73.0,29.75,NW,320,1.0,5.0,100,0.00,,,0.00,,2013-06-27 07:02:00,
2013-06-27 03:22:00,73.0,73.0,29.75,NW,320,1.0,5.0,100,0.00,,,0.00,,2013-06-27 07:22:00,
2013-06-27 03:33:00,73.0,73.0,29.75,NW,320,0.0,5.0,100,0.00,,,0.00,,2013-06-27 07:33:00,
2013-06-27 03:42:00,73.0,73.0,29.74,NW,320,0.0,5.0,100,0.00,,,0.00,,2013-06-27 07:42:00,
2013-06-27 03:52:00,73.0,73.0,29.74,NW,320,0.0,5.0,100,0.00,,,0.00,,2013-06-27 07:52:00,
2013-06-27 04:01:00,73.0,73.0,29.74,NW,319,2.0,5.0,100,0.00,,,0.00,,2013-06-27 08:01:00,
2013-06-27 04:22:00,73.0,73.0,29.74,NW,304,0.0,5.0,100,0.00,,,0.00,,2013-06-27 08:22:00,
2013-06-27 04:34:00,73.0,73.0,29.74,NW,305,0.0,5.0,100,0.00,,,0.00,,2013-06-27 08:34:00,
2013-06-27 04:43:00,73.0,73.0,29.75,NW,304,0.0,5.0,100,0.00,,,0.00,,2013-06-27 08:43:00,
2013-06-27 04:52:00,73.0,73.0,29.75,NW,304,0.0,5.0,100,0.00,,,0.00,,2013-06-27 08:52:00,
2013-06-27 05:02:00,73.0,73.0,29.75,NW,304,0.0,5.0,100,0.00,,,0.00,,2013-06-27 09:02:00,
2013-06-27 05:22:00,73.0,73.0,29.76,NW,305,0.0,5.0,100,0.00,,,0.00,,2013-06-27 09:22:00,
2013-06-27 05:34:00,73.0,73.0,29.76,NW,304,0.0,5.0,100,0.00,,,0.00,,2013-06-27 09:34:00,
2013-06-27 05:43:00,73.0,73.0,29.76,WSW,257,1.0,5.0,100,0.00,,,0.00,,2013-06-27 09:43:00,
2013-06-27 05:53:00,73.0,73.0,29.76,ESE,116,1.0,5.0,100,0.00,,,0.00,,2013-06-27 09:53:00,
2013-06-27 06:01:00,73.0,73.0,29.77,SE,127,0.0,5.0,100,0.00,,,0.00,,2013-06-27 10:01:00,
2013-06-27 06:11:00,73.0,73.0,29.77,SE,127,0.0,5.0,100,0.00,,,0.00,,2013-06-27 10:11:00,
2013-06-27 06:22:00,73.0,73.0,29.77,East,83,0.0,5.0,100,0.00,,,0.00,,2013-06-27 10:22:00,
2013-06-27 06:32:00,74.0,74.0,29.78,East,101,2.0,5.0,100,0.00,,,0.00,,2013-06-27 10:32:00,
2013-06-27 06:44:00,74.0,74.0,29.79,ESE,117,1.0,5.0,100,0.00,,,0.00,,2013-06-27 10:44:00,
2013-06-27 06:54:00,74.0,74.0,29.79,SE,124,1.0,5.0,100,0.00,,,0.00,,2013-06-27 10:54:00,
2013-06-27 07:43:00,74.0,74.0,29.79,NE,55,1.0,5.0,100,0.00,,,0.00,,2013-06-27 11:43:00,
2013-06-27 07:52:00,74.0,74.0,29.79,ENE,60,1.0,5.0,100,0.00,,,0.00,,2013-06-27 11:52:00,
2013-06-27 08:11:00,74.0,74.0,29.79,NNE,32,0.0,5.0,100,0.00,,,0.00,,2013-06-27 12:11:00,
2013-06-27 08:22:00,75.0,75.0,29.78,NNE,33,0.0,5.0,100,0.00,,,0.00,,2013-06-27 12:22:00,
2013-06-27 08:34:00,75.0,75.0,29.78,NNE,32,1.0,5.0,100,0.00,,,0.00,,2013-06-27 12:34:00,
2013-06-27 08:42:00,75.0,75.0,29.78,North,1,0.0,5.0,100,0.00,,,0.00,,2013-06-27 12:42:00,
2013-06-27 09:01:00,76.0,76.0,29.77,North,1,2.0,5.0,100,0.00,,,0.00,,2013-06-27 13:01:00,
2013-06-27 09:11:00,76.0,76.0,29.78,North,354,1.0,5.0,100,0.00,,,0.00,,2013-06-27 13:11:00,
2013-06-27 09:34:00,77.0,77.0,29.77,ENE,71,1.0,5.0,100,0.00,,,0.00,,2013-06-27 13:34:00,
2013-06-27 11:33:00,79.0,78.0,29.77,SSE,153,1.0,7.0,96,0.00,,,0.00,,2013-06-27 15:33:00,
2013-06-27 11:52:00,79.0,77.0,29.77,ESE,120,1.0,7.0,95,0.00,,,0.00,,2013-06-27 15:52:00,
2013-06-27 12:23:00,78.0,77.0,29.77,ENE,66,2.0,7.0,96,0.00,,,0.00,,2013-06-27 16:23:00,
2013-06-27 12:53:00,77.0,76.0,29.77,East,100,3.0,10.0,98,0.00,,,0.00,,2013-06-27 16:53:00,
2013-06-27 13:02:00,77.0,77.0,29.76,SE,133,3.0,10.0,99,0.00,,,0.00,,2013-06-27 17:02:00,
2013-06-27 13:43:00,78.0,76.0,29.73,East,90,5.0,10.0,94,0.00,,,0.00,,2013-06-27 17:43:00,
2013-06-27 13:53:00,78.0,76.0,29.73,SE,137,3.0,10.0,95,0.00,,,0.00,,2013-06-27 17:53:00,
2013-06-27 14:01:00,79.0,77.0,29.73,SE,124,2.0,10.0,93,0.00,,,0.00,,2013-06-27 18:01:00,
2013-06-27 14:22:00,78.0,76.0,29.74,East,96,3.0,12.0,95,0.00,,,0.00,,2013-06-27 18:22:00,
2013-06-27 14:32:00,77.0,76.0,29.74,East,79,2.0,12.0,96,0.00,,,0.00,,2013-06-27 18:32:00,
2013-06-27 14:44:00,76.0,76.0,29.74,East,88,3.0,12.0,99,0.00,,,0.00,,2013-06-27 18:44:00,
2013-06-27 14:52:00,75.0,75.0,29.73,East,100,5.0,12.0,100,0.00,,,0.00,,2013-06-27 18:52:00,
2013-06-27 15:11:00,75.0,75.0,29.72,East,84,5.0,12.0,100,0.00,,,0.00,,2013-06-27 19:11:00,
2013-06-27 15:42:00,77.0,76.0,29.72,NE,54,5.0,12.0,96,0.00,,,0.00,,2013-06-27 19:42:00,
2013-06-27 15:53:00,77.0,75.0,29.72,ESE,115,6.0,12.0,95,0.00,,,0.00,,2013-06-27 19:53:00,
2013-06-27 16:02:00,76.0,75.0,29.72,ESE,112,3.0,12.0,98,0.00,,,0.00,,2013-06-27 20:02:00,
2013-06-27 16:11:00,76.0,76.0,29.72,ESE,115,3.0,12.0,99,0.00,,,0.00,,2013-06-27 20:11:00,
2013-06-27 16:22:00,76.0,76.0,29.71,East,87,3.0,12.0,99,0.00,,,0.00,,2013-06-27 20:22:00,
2013-06-27 16:46:00,76.0,76.0,29.71,East,87,5.0,12.0,99,0.00,,,0.00,,2013-06-27 20:46:00,
2013-06-27 16:54:00,76.0,76.0,29.70,East,97,5.0,12.0,99,0.00,,,0.00,,2013-06-27 20:54:00,
2013-06-27 17:06:00,76.0,76.0,29.70,East,97,5.0,12.0,99,0.00,,,0.00,,2013-06-27 21:06:00,
2013-06-27 17:53:00,77.0,76.0,29.69,East,93,3.0,12.0,98,0.00,,,0.00,,2013-06-27 21:53:00,
2013-06-27 18:06:00,77.0,76.0,29.67,ESE,116,3.0,12.0,98,0.00,,,0.00,,2013-06-27 22:06:00,
2013-06-27 18:16:00,78.0,77.0,29.67,East,92,2.0,12.0,97,0.00,,,0.00,,2013-06-27 22:16:00,
2013-06-27 18:25:00,78.0,77.0,29.67,ENE,67,2.0,12.0,97,0.00,,,0.00,,2013-06-27 22:25:00,
2013-06-27 18:48:00,79.0,78.0,29.67,ENE,78,3.0,12.0,96,0.00,,,0.00,,2013-06-27 22:48:00,
2013-06-27 18:57:00,78.0,77.0,29.68,ESE,123,3.0,12.0,96,0.00,,,0.00,,2013-06-27 22:57:00,
2013-06-27 19:06:00,78.0,77.0,29.68,East,84,2.0,12.0,96,0.00,,,0.00,,2013-06-27 23:06:00,
2013-06-27 19:16:00,78.0,77.0,29.69,East,83,2.0,12.0,97,0.00,,,0.00,,2013-06-27 23:16:00,
2013-06-27 19:25:00,77.0,76.0,29.69,East,92,3.0,12.0,97,0.00,,,0.00,,2013-06-27 23:25:00,
2013-06-27 19:45:00,76.0,76.0,29.68,SSE,160,1.0,12.0,100,0.00,,,0.00,,2013-06-27 23:45:00,
2013-06-27 19:55:00,76.0,76.0,29.68,SSE,164,2.0,12.0,100,0.00,,,0.00,,2013-06-27 23:55:00,
2013-06-27 20:07:00,76.0,76.0,29.67,SE,131,1.0,12.0,100,0.00,,,0.00,,2013-06-28 00:07:00,
2013-06-27 20:29:00,76.0,76.0,29.67,ESE,102,2.0,12.0,100,0.00,,,0.00,,2013-06-28 00:29:00,
2013-06-27 20:45:00,76.0,76.0,29.66,ESE,111,2.0,12.0,100,0.00,,,0.00,,2013-06-28 00:45:00,
2013-06-27 20:54:00,76.0,76.0,29.66,ESE,111,2.0,12.0,100,0.00,,,0.00,,2013-06-28 00:54:00,
2013-06-27 21:09:00,75.0,75.0,29.65,East,81,1.0,12.0,100,0.00,,,0.00,,2013-06-28 01:09:00,
2013-06-27 21:14:00,75.0,75.0,29.64,ESE,114,2.0,12.0,100,0.00,,,0.00,,2013-06-28 01:14:00,
2013-06-27 21:26:00,75.0,75.0,29.64,ESE,114,2.0,12.0,100,0.00,,,0.00,,2013-06-28 01:26:00,
2013-06-27 21:46:00,74.0,74.0,29.63,East,92,5.0,14.0,100,0.00,,,0.00,,2013-06-28 01:46:00,
2013-06-27 21:56:00,74.0,74.0,29.62,ESE,120,5.0,14.0,100,0.00,,,0.00,,2013-06-28 01:56:00,
2013-06-27 22:55:00,73.0,73.0,29.59,East,97,5.0,17.0,100,0.54,,,0.54,,2013-06-28 02:55:00,
2013-06-27 23:28:00,76.0,76.0,29.57,East,85,1.0,17.0,100,0.02,,,0.55,,2013-06-28 03:28:00,